Flag for Poland Weather past 2 weeks in Kalisz, Poland

Now
40 °F

Overcast.


Feels Like: 37 °F
Forecast: 31 / 48 °F
Wind: 5 mph from West

Location: Kalisz

Current Time: Feb 28, 2015 at 3:27:37 PM

Latest Report: Feb 28, 2015 at 2:00 PM


Visibility: 11 mi

Pressure: 30.11 "Hg

Humidity: 74%

Dew point: 33 °F

Location of KaliszLocation

Historic Weather in Kalisz — Graph

°F

Kalisz temperature yesterday

Maximum temperature yesterday: 47 °F (at 4:00 PM)
Minimum temperature yesterday: 40 °F (at 5:00 AM)
Average temperature yesterday: 43 °F

Past Weeks' High & Low Weather Summary

 TemperatureHumidityPressure
High49 °F (Feb 21, 3:00 PM)97% (Feb 18, 10:00 AM)30.72 "Hg (Feb 18, 10:00 AM)
Low24 °F (Feb 17, 7:00 AM)40% (Feb 21, 2:00 PM)29.50 "Hg (Feb 21, 2:00 PM)
Average37 °F78%30.09 "Hg
* Reported Feb 13 3:00 PM — Feb 28 2:00 PM, Kalisz, Weather by CustomWeather, © 2015

Note: Actual official high and low records may vary slightly from our data, if they occured in-between our weather recording intervals... More about our weather records

Advertising

Kalisz weather history for previous 24 hours

 ConditionsComfort  
Time TempWeatherWind HumidityBarometerVisibility
2:00 PM
Sat, Feb 28
40 °FOvercast.5 mph74%30.11 "Hg11 mi
1:00 PM40 °FOvercast.7 mph78%30.11 "Hg6 mi
12:00 PM39 °FOvercast.6 mph84%30.12 "Hg6 mi
11:00 AM36 °FFog.7 mph92%30.12 "Hg2 mi
10:00 AM36 °FFog.8 mph90%30.10 "Hg2 mi
9:00 AM39 °FFog.6 mph85%30.09 "Hg3 mi
8:00 AM41 °FFog.6 mph83%30.06 "Hg2 mi
7:00 AM40 °FFog.2 mph89%30.04 "Hg2 mi
6:00 AM40 °FFog.2 mph89%30.03 "Hg2 mi
5:00 AM41 °FFog.3 mph88%30.01 "Hg2 mi
3:00 AM42 °FFog.3 mph87%30.01 "Hg2 mi
2:00 AM42 °FFog.2 mph85%30.01 "Hg2 mi
1:00 AM43 °FFog.2 mph83%30.01 "Hg2 mi
12:00 AM43 °FFog.3 mph83%30.01 "Hg3 mi
11:00 PM
Fri, Feb 27
43 °FFog.2 mph83%30.01 "Hg3 mi
9:00 PM44 °FFog.2 mph82%29.99 "Hg2 mi
8:00 PM44 °FFog.1 mph81%29.98 "Hg2 mi
7:00 PM44 °FFog.2 mph81%29.97 "Hg2 mi
6:00 PM45 °FFog.2 mph78%29.96 "Hg2 mi
5:00 PM46 °FFog.2 mph73%29.95 "Hg3 mi
4:00 PM47 °FOvercast.2 mph68%29.95 "Hg4 mi
3:00 PM46 °FOvercast.2 mph70%29.95 "Hg6 mi
Weather by CustomWeather, © 2015

See weather overviewHow to use our weather pages